"startDT [UTC]","vpos","CH4 [ppm]","stdev(CH4) [ppm]","CO2 [ppm]","stdev(CO2) [ppm]","H2O_reported [%]","stdev(H2O_reported)","CavityPressure [torr]","CavityTemp [C]","OutletValve","CH4_dry [ppm]","CO2_dry [ppm]","DasTemp [C]","EtalonTemp [C]","WarmBoxTemp [C]","MPVPosition","T_ECpre [C]","T_EC1 [C]","T_EC2 [C]","p_inlet [hPa]","p_in [hPa]","p_out [hPa]","T_inlet [C]","RH_inlet [%]","dwpt_inlet [C]","T_vent [C]","RH_vent [%]","dwpt_vent [C]","flow_vent [l min-1]","flow_inlet [l min-1]","dwpt_sample [C]","T_room [C]"
2016-12-08 00:00:00,0.0,1.96797,0.00044,411.162,0.040,0.0204,0.0023,139.997,45.000,31406.80386,1.96838,411.263,31.638,45.073,45.000,0.00,0.06,-272.86,-272.89,-1,521,-941,16.5,0.8,-42.0,16.9,0.9,-40.9,0.54,2.08,-22.7,23.2
2016-12-08 00:01:00,0.0,1.96763,0.00039,411.141,0.034,0.0199,0.0012,140.001,45.000,31405.59977,1.96800,411.239,31.651,45.073,45.000,0.00,0.06,-272.86,-272.89,-1,521,-941,16.5,0.8,-42.0,16.9,0.9,-40.9,0.54,2.03,-22.7,23.2
2016-12-08 00:02:00,0.0,1.96733,0.00047,411.154,0.032,0.0197,0.0019,140.001,45.000,31405.33842,1.96773,411.251,31.677,45.073,45.000,0.00,0.06,-272.86,-272.90,-1,521,-941,16.5,0.8,-41.8,16.9,0.9,-40.8,0.54,1.97,-22.7,23.2
2016-12-08 00:03:00,0.0,1.96685,0.00040,411.214,0.063,0.0209,0.0022,140.000,45.000,31405.02517,1.96726,411.315,31.662,45.073,45.000,0.00,0.06,-272.85,-272.89,-1,521,-941,16.5,0.8,-41.6,16.9,0.9,-40.6,0.54,1.94,-22.7,23.3
2016-12-08 00:04:00,0.0,1.96661,0.00033,411.258,0.033,0.0216,0.0023,139.996,45.000,31403.89841,1.96707,411.364,31.629,45.073,45.000,0.00,0.06,-272.86,-272.89,-1,521,-941,16.5,0.9,-41.4,16.9,0.9,-40.4,0.54,1.99,-22.7,23.2
2016-12-08 00:05:00,0.0,1.96596,0.00042,411.197,0.045,0.0209,0.0015,139.999,45.000,31404.13666,1.96635,411.303,31.627,45.073,45.000,0.00,0.06,-272.86,-272.89,-1,521,-941,16.5,0.9,-41.1,16.9,0.9,-40.2,0.54,2.05,-22.7,23.2
2016-12-08 00:06:00,0.0,1.96636,0.00045,411.233,0.033,0.0217,0.0016,140.000,45.000,31403.71077,1.96676,411.340,31.625,45.073,45.000,0.00,0.06,-272.86,-272.90,-1,521,-941,16.5,0.9,-41.1,16.9,1.0,-39.9,0.54,2.07,-22.7,23.2
2016-12-08 00:07:00,0.0,1.96595,0.00055,411.222,0.038,0.0218,0.0019,140.001,45.000,31405.43403,1.96640,411.330,31.629,45.073,45.000,0.00,0.06,-272.85,-272.89,-1,521,-941,16.5,0.9,-41.0,16.9,1.0,-40.0,0.54,2.03,-22.7,23.2
2016-12-08 00:08:00,0.0,1.96570,0.00034,411.194,0.040,0.0215,0.0018,139.999,45.000,31403.66219,1.96610,411.300,31.641,45.073,45.000,0.00,0.06,-272.86,-272.89,-1,521,-941,16.5,0.9,-40.9,16.9,1.0,-39.9,0.54,1.97,-22.7,23.2
2016-12-08 00:09:00,0.0,1.96572,0.00039,411.186,0.033,0.0222,0.0014,139.997,45.000,31402.95697,1.96618,411.297,31.644,45.073,45.000,0.00,0.06,-272.86,-272.89,-1,521,-941,16.5,0.9,-40.8,16.9,1.0,-39.7,0.54,1.93,-22.7,23.2
2016-12-08 00:10:00,0.0,1.96554,0.00062,411.173,0.032,0.0221,0.0020,140.001,45.000,31404.67774,1.96592,411.281,31.639,45.073,45.000,0.00,0.06,-272.86,-272.89,-1,521,-941,16.5,0.9,-40.8,16.9,1.0,-39.7,0.54,1.96,-22.7,23.2
2016-12-08 00:11:00,0.0,1.96761,0.00081,411.247,0.033,0.0215,0.0018,140.001,45.000,31402.64446,1.96797,411.352,31.639,45.073,45.000,0.00,0.06,-272.86,-272.88,-1,521,-941,16.5,0.9,-40.8,16.9,1.0,-39.8,0.54,2.04,-22.7,23.2
2016-12-08 00:12:00,0.0,1.96834,0.00049,411.284,0.036,0.0212,0.0019,139.998,45.000,31401.19766,1.96879,411.389,31.683,45.073,45.000,0.00,0.06,-272.87,-272.90,-1,521,-941,16.5,0.9,-41.0,16.9,1.0,-39.8,0.54,2.08,-22.7,23.2
2016-12-08 00:13:00,0.0,1.96678,0.00052,411.226,0.051,0.0211,0.0014,140.001,45.000,31403.29417,1.96719,411.332,31.651,45.073,45.000,0.00,0.06,-272.85,-272.89,-1,521,-941,16.5,0.9,-41.3,16.9,1.0,-40.0,0.54,2.05,-22.7,23.2
2016-12-08 00:14:00,0.0,1.96704,0.00034,411.228,0.038,0.0202,0.0023,139.998,45.000,31400.39439,1.96745,411.326,31.636,45.073,45.000,0.00,0.06,-272.85,-272.89,-1,521,-941,16.5,0.8,-41.6,16.9,0.9,-40.3,0.54,1.98,-22.7,23.2
2016-12-08 00:15:00,0.0,1.96631,0.00042,411.223,0.032,0.0205,0.0016,140.000,45.000,31402.28896,1.96672,411.325,31.626,45.073,45.000,0.00,0.06,-272.86,-272.90,-1,521,-941,16.5,0.8,-41.7,16.9,0.9,-40.6,0.54,1.93,-22.7,23.2
2016-12-08 00:16:00,0.0,1.96656,0.00035,411.225,0.029,0.0198,0.0021,140.000,45.000,31401.22586,1.96693,411.323,31.624,45.073,45.000,0.00,0.06,-272.86,-272.90,-1,521,-941,16.5,0.8,-42.0,16.9,0.9,-40.7,0.54,1.98,-22.7,23.2
2016-12-08 00:17:00,0.0,1.96702,0.00043,411.236,0.028,0.0202,0.0023,140.000,45.000,31400.92522,1.96741,411.335,31.617,45.073,45.000,0.00,0.06,-272.85,-272.89,-1,521,-941,16.5,0.8,-41.9,16.9,0.9,-40.8,0.54,2.04,-22.7,23.2
2016-12-08 00:18:00,0.0,1.96693,0.00037,411.223,0.031,0.0198,0.0021,140.001,45.000,31401.54511,1.96732,411.321,31.611,45.073,45.000,0.00,0.06,-272.85,-272.89,-1,521,-941,16.5,0.8,-41.7,16.9,0.9,-40.6,0.54,2.08,-22.7,23.2
2016-12-08 00:19:00,0.0,1.96634,0.00033,411.214,0.033,0.0213,0.0017,140.000,45.000,31404.74657,1.96679,411.320,31.593,45.073,45.000,0.00,0.06,-272.86,-272.90,-1,521,-941,16.5,0.8,-41.7,16.9,0.9,-40.6,0.54,2.04,-22.8,23.2
2016-12-08 00:20:00,0.0,1.96560,0.00038,411.185,0.029,0.0209,0.0016,140.001,45.000,31406.21108,1.96602,411.287,31.578,45.073,45.000,0.00,0.06,-272.86,-272.89,-1,521,-941,16.5,0.9,-41.4,16.9,0.9,-40.5,0.54,1.98,-22.7,23.2
2016-12-08 00:21:00,0.0,1.96507,0.00042,411.143,0.033,0.0218,0.0019,139.999,45.000,31406.27007,1.96552,411.251,31.590,45.074,45.001,0.00,0.06,-272.86,-272.89,-1,521,-941,16.5,0.9,-41.2,16.9,0.9,-40.3,0.54,1.93,-22.7,23.2
2016-12-08 00:22:00,0.0,1.96504,0.00031,411.121,0.035,0.0219,0.0026,139.998,45.000,31404.94210,1.96544,411.230,31.615,45.073,45.000,0.00,0.06,-272.87,-272.89,-1,521,-941,16.5,0.9,-41.1,16.9,1.0,-40.0,0.54,1.97,-22.7,23.2
2016-12-08 00:23:00,0.0,1.96573,0.00055,411.168,0.030,0.0210,0.0012,140.000,45.000,31403.66412,1.96609,411.271,31.625,45.073,45.000,0.00,0.06,-272.86,-272.89,-1,521,-941,16.5,0.9,-41.1,16.9,1.0,-40.0,0.54,2.03,-22.7,23.2
2016-12-08 00:24:00,0.0,1.96590,0.00041,411.173,0.030,0.0208,0.0018,140.001,45.000,31404.63241,1.96632,411.275,31.636,45.073,45.000,0.00,0.06,-272.85,-272.88,-1,521,-941,16.5,0.9,-41.4,16.9,0.9,-40.3,0.54,2.07,-22.8,23.2
2016-12-08 00:25:00,0.0,1.96593,0.00039,411.196,0.039,0.0209,0.0014,140.001,45.000,31404.51312,1.96633,411.299,31.633,45.073,45.000,0.00,0.06,-272.86,-272.89,-1,521,-941,16.5,0.8,-41.7,16.9,0.9,-40.4,0.54,2.04,-22.7,23.2
2016-12-08 00:26:00,0.0,1.96600,0.00038,411.204,0.033,0.0200,0.0016,140.002,45.000,31402.38099,1.96637,411.304,31.629,45.073,45.000,0.00,0.06,-272.86,-272.90,-1,521,-941,16.5,0.8,-41.6,16.9,0.9,-40.6,0.54,1.97,-22.7,23.2
2016-12-08 00:27:00,0.0,1.96560,0.00041,411.210,0.033,0.0202,0.0014,140.001,45.000,31402.34273,1.96600,411.309,31.628,45.073,45.000,0.00,0.06,-272.86,-272.89,-1,521,-941,16.5,0.8,-41.7,16.9,0.9,-40.6,0.54,1.93,-22.7,23.2
2016-12-08 00:28:00,0.0,1.96606,0.00032,411.218,0.030,0.0201,0.0018,140.001,45.000,31403.64677,1.96643,411.318,31.624,45.073,45.000,0.00,0.06,-272.85,-272.89,-1,521,-941,16.5,0.8,-41.6,16.9,0.9,-40.6,0.54,1.97,-22.7,23.2
2016-12-08 00:29:00,0.0,1.96620,0.00035,411.208,0.033,0.0202,0.0017,140.004,45.000,31404.08570,1.96660,411.309,31.621,45.073,45.000,0.00,0.06,-272.86,-272.90,-1,521,-941,16.5,0.8,-41.8,16.9,0.9,-40.6,0.54,2.04,-22.7,23.2
2016-12-08 00:30:00,0.0,1.96720,0.00053,411.239,0.034,0.0204,0.0026,140.000,45.000,31402.41929,1.96757,411.339,31.592,45.073,45.000,0.00,0.06,-272.86,-272.89,-1,521,-941,16.5,0.8,-42.1,16.9,0.9,-40.8,0.54,2.08,-22.7,23.2
2016-12-08 00:31:00,0.0,1.96689,0.00045,411.213,0.029,0.0199,0.0016,139.999,45.000,31400.39477,1.96728,411.312,31.582,45.073,45.000,0.00,0.07,-272.86,-272.89,-1,521,-940,16.5,0.8,-42.3,16.9,0.9,-41.0,0.54,2.03,-22.7,23.2
2016-12-08 00:32:00,0.0,1.96655,0.00040,411.197,0.039,0.0186,0.0019,140.001,45.000,31401.47824,1.96691,411.289,31.580,45.073,45.000,0.00,0.06,-272.86,-272.90,-1,521,-941,16.5,0.7,-42.9,16.9,0.8,-41.3,0.54,1.95,-22.7,23.2
2016-12-08 00:33:00,0.0,1.96647,0.00044,411.214,0.026,0.0182,0.0021,139.999,45.000,31398.02975,1.96686,411.303,31.574,45.073,45.000,0.00,0.06,-272.86,-272.90,-1,521,-940,16.5,0.7,-43.2,16.9,0.8,-41.7,0.54,1.93,-22.7,23.2
2016-12-08 00:34:00,0.0,1.96595,0.00032,411.201,0.036,0.0179,0.0015,140.000,45.000,31398.61806,1.96628,411.289,31.563,45.073,45.000,0.00,0.06,-272.86,-272.89,-1,521,-941,16.5,0.7,-43.8,16.9,0.8,-42.0,0.54,1.99,-22.7,23.2
2016-12-08 00:35:00,0.0,1.96624,0.00037,411.219,0.050,0.0180,0.0017,139.998,45.000,31397.26893,1.96657,411.308,31.563,45.073,45.000,0.00,0.06,-272.86,-272.89,-1,521,-941,16.5,0.7,-43.8,16.9,0.8,-42.2,0.54,2.06,-22.7,23.2
2016-12-08 00:36:00,0.0,1.96692,0.00039,411.206,0.038,0.0180,0.0020,140.000,45.000,31396.90441,1.96726,411.295,31.563,45.073,45.000,0.00,0.06,-272.87,-272.90,-1,521,-941,16.5,0.7,-43.5,16.9,0.8,-42.2,0.54,2.08,-22.8,23.2
2016-12-08 00:37:00,0.0,1.96727,0.00071,411.217,0.046,0.0187,0.0019,140.000,45.000,31395.92767,1.96764,411.310,31.564,45.073,45.000,0.00,0.06,-272.86,-272.89,-1,521,-940,16.5,0.7,-43.3,16.9,0.8,-42.1,0.54,2.01,-22.7,23.2
2016-12-08 00:38:00,0.0,1.96645,0.00028,411.189,0.023,0.0184,0.0016,140.002,45.000,31397.68876,1.96683,411.280,31.567,45.073,45.000,0.00,0.06,-272.86,-272.89,-1,521,-940,16.5,0.7,-43.4,16.9,0.8,-41.8,0.54,1.94,-22.7,23.2
2016-12-08 00:39:00,0.0,1.96602,0.00027,411.210,0.038,0.0183,0.0015,139.997,45.000,31395.88962,1.96637,411.302,31.579,45.073,45.000,0.00,0.06,-272.87,-272.90,-1,521,-940,16.5,0.7,-43.4,16.9,0.8,-42.1,0.54,1.94,-22.7,23.2
2016-12-08 00:40:00,0.0,1.96610,0.00030,411.220,0.024,0.0182,0.0016,140.000,45.000,31395.54421,1.96646,411.309,31.596,45.073,45.000,0.00,0.06,-272.87,-272.89,-1,521,-940,16.5,0.7,-43.3,16.9,0.8,-42.2,0.54,2.02,-22.7,23.2
2016-12-08 00:41:00,0.0,1.96608,0.00041,411.201,0.044,0.0180,0.0019,140.000,45.000,31396.78063,1.96643,411.290,31.563,45.073,45.000,0.00,0.06,-272.86,-272.89,-1,521,-940,16.5,0.7,-43.4,16.9,0.8,-42.1,0.54,2.08,-22.7,23.2
2016-12-08 00:42:00,0.0,1.96626,0.00033,411.197,0.031,0.0178,0.0020,140.001,45.000,31397.53207,1.96661,411.284,31.563,45.073,45.000,0.00,0.06,-272.86,-272.90,-1,521,-941,16.5,0.7,-43.3,16.9,0.8,-41.9,0.54,2.06,-22.8,23.2
2016-12-08 00:43:00,0.0,1.96636,0.00046,411.231,0.042,0.0179,0.0022,139.998,45.000,31396.31997,1.96670,411.318,31.562,45.073,45.000,0.00,0.06,-272.86,-272.90,-1,521,-940,16.5,0.7,-43.1,16.9,0.8,-41.7,0.54,1.99,-22.7,23.2
2016-12-08 00:44:00,0.0,1.96600,0.00054,411.230,0.039,0.0187,0.0015,139.999,45.000,31397.93062,1.96635,411.325,31.564,45.073,45.000,0.00,0.06,-272.86,-272.89,-1,521,-941,16.5,0.7,-42.8,16.9,0.8,-41.7,0.54,1.94,-22.8,23.2
2016-12-08 00:45:00,0.0,1.96576,0.00037,411.231,0.035,0.0185,0.0020,140.000,45.000,31398.30650,1.96613,411.321,31.563,45.073,45.000,0.00,0.06,-272.86,-272.89,-1,521,-941,16.5,0.8,-42.4,16.8,0.8,-41.5,0.54,1.96,-22.8,23.2
2016-12-08 00:46:00,0.0,1.96601,0.00034,411.230,0.037,0.0203,0.0022,139.998,45.000,31397.89117,1.96639,411.330,31.584,45.073,45.000,0.00,0.06,-272.87,-272.90,-1,521,-940,16.4,0.8,-42.1,16.9,0.9,-41.0,0.54,2.05,-22.8,23.2
2016-12-08 00:47:00,0.0,1.96602,0.00032,411.221,0.029,0.0201,0.0016,139.998,45.000,31396.63033,1.96643,411.321,31.609,45.073,45.000,0.00,0.06,-272.86,-272.89,-1,521,-940,16.5,0.8,-41.7,16.9,0.9,-40.9,0.54,2.08,-22.7,23.2
2016-12-08 00:48:00,0.0,1.96573,0.00032,411.229,0.030,0.0199,0.0021,140.001,45.000,31396.49971,1.96612,411.327,31.574,45.073,45.000,0.00,0.06,-272.85,-272.89,-1,521,-940,16.4,0.8,-41.7,16.8,0.9,-40.6,0.54,2.03,-22.8,23.2
2016-12-08 00:49:00,0.0,1.96582,0.00048,411.232,0.034,0.0196,0.0017,140.001,45.000,31395.58492,1.96617,411.329,31.563,45.073,45.000,0.00,0.06,-272.86,-272.89,-1,521,-940,16.5,0.8,-42.0,16.9,0.9,-40.9,0.54,1.96,-22.8,23.2
2016-12-08 00:50:00,0.0,1.96571,0.00036,411.220,0.035,0.0194,0.0015,140.001,45.000,31396.80968,1.96609,411.317,31.555,45.073,45.000,0.00,0.06,-272.86,-272.89,-1,521,-940,16.5,0.8,-42.1,16.9,0.9,-40.9,0.54,1.94,-22.8,23.2
2016-12-08 00:51:00,0.0,1.96561,0.00041,411.209,0.037,0.0205,0.0023,140.001,45.000,31396.20302,1.96606,411.311,31.562,45.073,45.000,0.00,0.06,-272.86,-272.89,-1,521,-940,16.5,0.8,-42.3,16.9,0.9,-40.9,0.54,1.98,-22.7,23.2
2016-12-08 00:52:00,0.0,1.96544,0.00053,411.192,0.033,0.0190,0.0015,139.998,45.000,31395.95787,1.96575,411.285,31.567,45.073,45.000,0.00,0.06,-272.86,-272.90,-1,520,-940,16.5,0.8,-42.4,16.9,0.8,-41.3,0.54,2.07,-22.8,23.2
2016-12-08 00:53:00,0.0,1.96553,0.00047,411.188,0.047,0.0191,0.0019,140.000,45.000,31397.01538,1.96594,411.285,31.570,45.073,45.000,0.00,0.06,-272.86,-272.89,-1,521,-940,16.5,0.8,-42.4,16.8,0.9,-41.1,0.54,2.08,-22.8,23.2
2016-12-08 00:54:00,0.0,1.96537,0.00030,411.168,0.036,0.0183,0.0016,140.002,45.000,31399.35948,1.96572,411.256,31.583,45.073,45.000,0.00,0.06,-272.85,-272.89,-1,521,-940,16.5,0.7,-42.7,16.9,0.8,-41.3,0.54,2.01,-22.7,23.2
2016-12-08 00:55:00,0.0,1.96547,0.00030,411.160,0.038,0.0185,0.0015,140.001,45.000,31396.88472,1.96582,411.253,31.578,45.073,45.000,0.00,0.06,-272.85,-272.89,-1,521,-940,16.5,0.7,-42.8,16.9,0.8,-41.6,0.54,1.94,-22.8,23.1
2016-12-08 00:56:00,0.0,1.96528,0.00030,411.145,0.025,0.0192,0.0017,140.000,45.000,31397.83964,1.96562,411.239,31.568,45.073,45.000,0.00,0.06,-272.86,-272.90,-1,521,-940,16.5,0.8,-42.6,16.9,0.8,-41.5,0.54,1.95,-22.8,23.2
2016-12-08 00:57:00,0.0,1.96555,0.00030,411.182,0.039,0.0198,0.0021,139.999,45.000,31396.86665,1.96594,411.280,31.559,45.073,45.000,0.00,0.06,-272.86,-272.89,-1,521,-940,16.5,0.8,-42.1,16.9,0.9,-41.0,0.54,2.03,-22.8,23.2
2016-12-08 00:58:00,0.0,1.96571,0.00033,411.211,0.031,0.0205,0.0015,139.999,45.000,31397.11356,1.96610,411.311,31.520,45.073,45.000,0.00,0.06,-272.85,-272.89,-1,521,-940,16.5,0.8,-41.6,16.9,0.9,-40.8,0.54,2.08,-22.7,23.2
2016-12-08 00:59:00,0.0,1.96577,0.00036,411.221,0.033,0.0201,0.0019,139.998,45.000,31396.82185,1.96615,411.319,31.501,45.073,45.000,0.00,0.06,-272.86,-272.89,-1,521,-940,16.5,0.9,-41.4,16.9,0.9,-40.5,0.54,2.05,-22.8,23.2
2016-12-08 01:00:00,0.0,1.96578,0.00036,411.239,0.039,0.0210,0.0021,140.000,45.000,31397.50258,1.96620,411.344,31.506,45.073,45.000,0.00,0.06,-272.86,-272.89,-1,521,-940,16.5,0.9,-41.4,16.9,0.9,-40.3,0.54,1.98,-22.8,23.2
2016-12-08 01:01:00,0.0,1.96574,0.00035,411.222,0.040,0.0214,0.0013,140.002,45.000,31397.32017,1.96617,411.327,31.549,45.073,45.000,0.00,0.07,-272.86,-272.89,-1,521,-940,16.5,0.9,-41.4,16.9,0.9,-40.3,0.54,1.94,-22.8,23.2
2016-12-08 01:02:00,0.0,1.96569,0.00034,411.206,0.036,0.0207,0.0016,140.003,45.000,31398.61662,1.96609,411.307,31.561,45.073,45.000,0.00,0.06,-272.86,-272.89,-1,521,-940,16.5,0.9,-41.4,16.9,0.9,-40.4,0.54,1.97,-22.8,23.2
2016-12-08 01:03:00,0.0,1.96567,0.00035,411.208,0.039,0.0218,0.0018,139.996,45.000,31397.78357,1.96609,411.315,31.559,45.073,45.000,0.00,0.06,-272.87,-272.90,-1,521,-940,16.5,0.9,-41.0,16.9,1.0,-40.1,0.54,2.06,-22.8,23.2
2016-12-08 01:04:00,0.0,1.96529,0.00028,411.145,0.034,0.0218,0.0021,140.001,45.000,31399.77504,1.96573,411.255,31.559,45.073,45.000,0.00,0.06,-272.86,-272.88,-1,521,-940,16.5,0.9,-41.0,16.9,1.0,-40.1,0.54,2.08,-22.8,23.2
2016-12-08 01:05:00,0.0,1.96522,0.00042,411.157,0.037,0.0219,0.0020,140.001,45.000,31399.62640,1.96566,411.264,31.559,45.073,45.000,0.00,0.06,-272.86,-272.89,-1,521,-940,16.5,0.9,-40.8,16.9,1.0,-39.9,0.54,2.03,-22.8,23.2
2016-12-08 01:06:00,0.0,1.96511,0.00037,411.166,0.035,0.0221,0.0020,139.998,45.000,31399.26517,1.96553,411.275,31.551,45.073,45.000,0.00,0.06,-272.87,-272.90,-1,521,-940,16.5,0.9,-40.7,16.9,1.0,-39.8,0.54,1.95,-22.8,23.2
2016-12-08 01:07:00,0.0,1.96530,0.00048,411.155,0.036,0.0216,0.0022,140.000,45.000,31397.27692,1.96570,411.263,31.560,45.073,45.000,0.00,0.06,-272.86,-272.90,-1,521,-940,16.5,0.9,-40.5,16.9,1.0,-39.8,0.54,1.94,-22.8,23.1
2016-12-08 01:08:00,0.0,1.96529,0.00028,411.137,0.022,0.0225,0.0015,139.999,45.000,31396.54143,1.96573,411.248,31.566,45.073,45.000,0.00,0.06,-272.85,-272.89,-1,521,-940,16.5,0.9,-40.7,16.9,1.0,-39.8,0.54,2.00,-22.8,23.2
2016-12-08 01:09:00,0.0,1.96524,0.00034,411.161,0.045,0.0223,0.0023,140.000,45.000,31395.78699,1.96570,411.272,31.598,45.073,45.000,0.00,0.06,-272.86,-272.89,-1,521,-940,16.5,0.9,-40.8,16.9,1.0,-39.8,0.54,2.07,-22.8,23.2
2016-12-08 01:10:00,0.0,1.96518,0.00038,411.134,0.025,0.0221,0.0017,139.996,45.000,31395.30953,1.96558,411.242,31.621,45.073,45.000,0.00,0.06,-272.86,-272.90,-1,521,-940,16.5,0.9,-40.8,16.9,1.0,-39.7,0.54,2.06,-22.8,23.2
2016-12-08 01:11:00,0.0,1.96517,0.00040,411.135,0.040,0.0222,0.0017,140.002,45.000,31395.75440,1.96561,411.247,31.581,45.073,45.000,0.00,0.06,-272.85,-272.89,-1,521,-940,16.5,0.9,-40.8,16.9,1.0,-39.8,0.54,1.99,-22.8,23.2
2016-12-08 01:12:00,0.0,1.96529,0.00045,411.152,0.065,0.0217,0.0015,140.001,45.000,31395.64452,1.96569,411.256,31.561,45.073,45.000,0.00,0.06,-272.86,-272.90,-1,521,-940,16.5,0.9,-41.1,16.9,1.0,-39.9,0.54,1.93,-22.8,23.1
2016-12-08 01:13:00,0.0,1.96544,0.00042,411.254,0.060,0.0211,0.0014,139.998,45.000,31393.92322,1.96587,411.357,31.527,45.073,45.000,0.00,0.06,-272.86,-272.90,-1,521,-940,16.5,0.9,-41.2,16.9,1.0,-40.0,0.54,1.97,-22.8,23.2
2016-12-08 01:14:00,0.0,1.96563,0.00042,411.447,0.044,0.0212,0.0014,139.999,45.000,31393.99039,1.96602,411.549,31.503,45.073,45.000,0.00,0.06,-272.86,-272.89,-1,521,-940,16.5,0.9,-41.4,16.9,1.0,-40.1,0.54,2.05,-22.8,23.2
2016-12-08 01:15:00,0.0,1.96549,0.00037,411.590,0.061,0.0204,0.0017,140.002,45.000,31396.10077,1.96589,411.688,31.500,45.073,45.001,0.00,0.06,-272.86,-272.89,-1,521,-940,16.5,0.9,-41.4,16.9,0.9,-40.3,0.54,2.08,-22.8,23.2
2016-12-08 01:16:00,0.0,1.96573,0.00038,411.790,0.104,0.0202,0.0015,139.999,45.000,31394.50689,1.96611,411.885,31.500,45.073,45.001,0.00,0.06,-272.86,-272.90,-1,521,-940,16.5,0.8,-41.6,16.9,0.9,-40.3,0.54,2.03,-22.8,23.2
2016-12-08 01:17:00,0.0,1.96559,0.00033,411.877,0.156,0.0211,0.0019,140.001,45.000,31394.50997,1.96601,411.984,31.500,45.073,45.000,0.00,0.06,-272.86,-272.90,-1,521,-940,16.5,0.8,-41.6,16.9,0.9,-40.4,0.54,1.95,-22.8,23.2
2016-12-08 01:18:00,0.0,1.96584,0.00035,411.799,0.042,0.0208,0.0017,139.998,45.000,31392.94051,1.96622,411.902,31.501,45.073,45.000,0.00,0.06,-272.85,-272.88,-1,521,-940,16.5,0.8,-41.8,16.9,0.9,-40.6,0.54,1.94,-22.8,23.2
2016-12-08 01:19:00,0.0,1.96592,0.00025,411.752,0.081,0.0201,0.0018,140.002,45.000,31392.44610,1.96632,411.852,31.499,45.073,45.000,0.00,0.06,-272.87,-272.89,-1,521,-940,16.5,0.8,-41.7,16.9,0.9,-40.6,0.54,2.01,-22.8,23.2
2016-12-08 01:20:00,0.0,1.96587,0.00041,411.628,0.049,0.0199,0.0016,140.000,45.000,31392.83607,1.96627,411.727,31.492,45.073,45.000,0.00,0.06,-272.86,-272.89,-1,521,-940,16.5,0.8,-41.7,16.9,0.9,-40.6,0.54,2.08,-22.8,23.2
2016-12-08 01:21:00,0.0,1.96574,0.00030,411.566,0.105,0.0197,0.0014,140.000,45.000,31392.29738,1.96613,411.668,31.498,45.073,45.000,0.00,0.06,-272.86,-272.89,-1,521,-940,16.5,0.8,-41.7,16.9,0.9,-40.7,0.54,2.07,-22.8,23.2
2016-12-08 01:22:00,0.0,1.96566,0.00038,411.403,0.060,0.0203,0.0018,140.002,45.000,31391.00817,1.96605,411.502,31.500,45.073,45.000,0.00,0.06,-272.86,-272.90,-1,521,-940,16.5,0.8,-41.7,16.9,0.9,-40.6,0.54,1.98,-22.8,23.2
2016-12-08 01:23:00,0.0,1.96581,0.00029,411.444,0.039,0.0215,0.0014,139.999,45.000,31389.35508,1.96622,411.551,31.500,45.073,45.000,0.00,0.06,-272.86,-272.90,-1,521,-940,16.5,0.8,-41.6,16.9,0.9,-40.6,0.54,1.93,-22.8,23.2
2016-12-08 01:24:00,0.0,1.96533,0.00028,411.426,0.038,0.0205,0.0020,140.000,45.000,31391.15764,1.96575,411.528,31.502,45.073,45.000,0.00,0.06,-272.86,-272.89,-1,521,-940,16.5,0.9,-41.3,16.9,0.9,-40.4,0.54,1.98,-22.8,23.2
2016-12-08 01:25:00,0.0,1.96552,0.00031,411.495,0.040,0.0208,0.0016,140.000,45.000,31389.21809,1.96591,411.596,31.515,45.073,45.000,0.00,0.06,-272.85,-272.89,-1,521,-940,16.5,0.9,-41.4,16.9,0.9,-40.3,0.54,2.06,-22.8,23.2
2016-12-08 01:26:00,0.0,1.96566,0.00037,411.606,0.050,0.0217,0.0013,140.001,45.000,31388.25857,1.96608,411.712,31.534,45.073,45.000,0.00,0.06,-272.86,-272.90,-1,521,-940,16.5,0.9,-41.3,16.9,0.9,-40.3,0.54,2.08,-22.8,23.2
2016-12-08 01:27:00,0.0,1.96559,0.00026,411.598,0.047,0.0211,0.0015,140.001,45.000,31391.07591,1.96600,411.705,31.505,45.073,45.000,0.00,0.06,-272.86,-272.89,-1,521,-940,16.5,0.9,-41.4,16.9,0.9,-40.2,0.54,2.00,-22.8,23.2
2016-12-08 01:28:00,0.0,1.96544,0.00042,411.631,0.044,0.0203,0.0020,140.001,45.000,31391.90026,1.96579,411.730,31.500,45.073,45.000,0.00,0.06,-272.85,-272.89,-1,521,-940,16.5,0.8,-41.8,16.9,0.9,-40.6,0.54,1.93,-22.8,23.1
2016-12-08 01:29:00,0.0,1.96522,0.00040,411.539,0.052,0.0196,0.0014,139.997,45.000,31391.05325,1.96564,411.639,31.500,45.073,45.000,0.00,0.06,-272.86,-272.89,-1,521,-940,16.5,0.8,-42.0,16.9,0.9,-40.7,0.54,1.96,-22.8,23.2
2016-12-08 01:30:00,0.0,1.96490,0.00032,411.390,0.060,0.0202,0.0023,140.001,45.000,31393.04710,1.96530,411.493,31.500,45.073,45.000,0.00,0.06,-272.86,-272.89,-1,521,-940,16.5,0.8,-42.3,16.9,0.9,-40.9,0.54,2.03,-22.8,23.2
2016-12-08 01:31:00,0.0,1.96488,0.00041,411.285,0.047,0.0199,0.0020,139.997,45.000,31393.05836,1.96526,411.383,31.500,45.073,45.000,0.00,0.06,-272.86,-272.89,-1,521,-940,16.5,0.8,-42.3,16.9,0.9,-41.0,0.54,2.09,-22.8,23.2
2016-12-08 01:32:00,0.0,1.96525,0.00031,411.375,0.098,0.0196,0.0013,140.000,45.000,31391.74375,1.96563,411.472,31.501,45.073,45.000,0.00,0.06,-272.86,-272.89,-1,520,-940,16.5,0.8,-42.1,16.9,0.9,-41.0,0.54,2.03,-22.8,23.2
2016-12-08 01:33:00,0.0,1.96542,0.00041,411.421,0.062,0.0190,0.0017,139.999,45.000,31390.40358,1.96578,411.512,31.501,45.073,45.000,0.00,0.06,-272.86,-272.90,-1,520,-940,16.5,0.8,-42.0,16.8,0.9,-40.9,0.54,1.95,-22.8,23.1
2016-12-08 01:34:00,0.0,1.96583,0.00039,411.549,0.053,0.0196,0.0019,140.000,45.000,31389.78701,1.96620,411.644,31.502,45.073,45.000,0.00,0.06,-272.86,-272.89,-1,520,-940,16.5,0.8,-42.4,16.9,0.9,-40.9,0.54,1.93,-22.8,23.1
2016-12-08 01:35:00,0.0,1.96598,0.00038,411.554,0.033,0.0198,0.0015,139.999,45.000,31390.57734,1.96636,411.652,31.502,45.073,45.000,0.00,0.06,-272.86,-272.88,-1,520,-940,16.5,0.8,-42.3,16.8,0.9,-41.1,0.54,2.00,-22.8,23.1
2016-12-08 01:36:00,0.0,1.96537,0.00036,411.504,0.039,0.0187,0.0021,139.999,45.000,31390.94911,1.96576,411.597,31.501,45.073,45.000,0.00,0.06,-272.86,-272.89,-1,521,-940,16.5,0.7,-42.7,16.9,0.9,-41.2,0.54,2.08,-22.8,23.2
2016-12-08 01:37:00,0.0,1.96529,0.00034,411.473,0.041,0.0192,0.0014,140.004,45.000,31393.29695,1.96565,411.567,31.501,45.073,45.000,0.00,0.06,-272.86,-272.90,-1,521,-940,16.5,0.8,-42.6,16.9,0.9,-41.2,0.54,2.06,-22.8,23.1
2016-12-08 01:38:00,0.0,1.96554,0.00038,411.518,0.033,0.0193,0.0014,139.997,45.000,31391.79354,1.96589,411.615,31.500,45.073,45.000,0.00,0.06,-272.85,-272.90,-1,520,-940,16.5,0.8,-42.3,16.9,0.8,-41.2,0.54,1.97,-22.8,23.1
2016-12-08 01:39:00,0.0,1.96536,0.00039,411.426,0.039,0.0189,0.0017,140.002,45.000,31393.23924,1.96573,411.520,31.501,45.073,45.000,0.00,0.06,-272.86,-272.89,-1,520,-940,16.5,0.8,-42.4,16.8,0.8,-41.2,0.54,1.92,-22.8,23.1
2016-12-08 01:40:00,0.0,1.96557,0.00030,411.378,0.042,0.0200,0.0016,140.002,45.000,31390.98605,1.96595,411.478,31.514,45.073,45.000,0.00,0.06,-272.86,-272.90,-1,521,-940,16.5,0.8,-42.3,16.9,0.9,-41.2,0.54,1.97,-22.8,23.2
2016-12-08 01:41:00,0.0,1.96633,0.00034,411.437,0.026,0.0194,0.0015,140.000,45.000,31390.54575,1.96667,411.532,31.556,45.073,45.000,0.00,0.06,-272.87,-272.89,-1,520,-940,16.5,0.8,-42.4,16.9,0.9,-41.2,0.54,2.05,-22.8,23.2
2016-12-08 01:42:00,0.0,1.96746,0.00046,411.463,0.044,0.0193,0.0018,140.002,45.000,31390.90338,1.96781,411.558,31.563,45.073,45.000,0.00,0.06,-272.86,-272.89,-1,520,-940,16.5,0.8,-42.6,16.9,0.9,-41.2,0.54,2.08,-22.8,23.1
2016-12-08 01:43:00,0.0,1.96893,0.00086,411.473,0.035,0.0191,0.0021,140.000,45.000,31390.18110,1.96916,411.567,31.564,45.073,45.000,0.00,0.06,-272.86,-272.89,-1,521,-940,16.5,0.7,-42.8,16.9,0.8,-41.5,0.54,2.00,-22.8,23.2
2016-12-08 01:44:00,0.0,1.97144,0.00068,411.477,0.037,0.0179,0.0023,140.000,45.000,31391.99498,1.97179,411.566,31.567,45.073,45.000,0.00,0.06,-272.86,-272.89,-1,521,-940,16.5,0.7,-43.2,16.9,0.8,-41.8,0.54,1.93,-22.8,23.2
2016-12-08 01:45:00,0.0,1.96844,0.00079,411.443,0.037,0.0176,0.0015,140.001,45.000,31391.69446,1.96889,411.531,31.567,45.073,45.000,0.00,0.06,-272.86,-272.88,-1,521,-940,16.5,0.7,-43.4,16.8,0.8,-41.8,0.54,1.94,-22.8,23.2